Regional Weather Roundup
Issued by NWS Kansas City/Pleasant Hill, MO

Home | Current Version | Previous Version | Graphics & Text | Print | Product List | Glossary Off
Versions: 1 2 3 4 5 6 7 8 9 10 11 12 13 14 15 16 17 18 19 20 21 22 23 24 25 26 27

000
ASUS43 KEAX 220010
RWREAX

WEATHER ROUNDUP FOR EASTERN KANSAS AND NORTHWEST MISSOURI
NATIONAL WEATHER SERVICE KANSAS CITY/PLEASANT HILL MO
600 PM CST TUE FEB 21 2017

KSZ040-057-103>105-MOZ028-029-037-043-220100-
...KANSAS CITY METROPOLITAN AREA...

CITY           SKY/WX    TMP DP  RH WIND       PRES   REMARKS
K.C. INTL      CLEAR     67  30  25 CALM      29.90S
6HR MIN TEMP:  64; 6HR MAX TEMP:  72;

K.C. DOWNTOWN  CLEAR     69  35  28 NW3       29.89R
6HR MIN TEMP:  64; 6HR MAX TEMP:  74;

LEES SUMMIT    CLEAR     67  42  40 CALM      29.90S
6HR MIN TEMP:  64; 6HR MAX TEMP:  72;

OLATHE - IXD   CLEAR     64  36  35 NW5       29.91S
6HR MIN TEMP:  63; 6HR MAX TEMP:  71;

OLATHE - OJC   CLEAR     68  37  32 N3        29.90S
6HR MIN TEMP:  64; 6HR MAX TEMP:  71;

LAWRENCE       CLEAR     66  28  24 CALM      29.89F

$$

MOZ001>008-011>017-020>025-030>033-038>040-044>046-053-054-220100-
...NORTHERN AND CENTRAL MISSOURI...

CITY           SKY/WX    TMP DP  RH WIND       PRES   REMARKS
ST. JOSEPH     CLEAR     65  34  31 SW3       29.89S
6HR MIN TEMP:  62; 6HR MAX TEMP:  70;

WARRENSBURG    CLEAR     64  46  52 CALM      29.90S
WHITEMAN AFB   PTCLDY    65  51  60 CALM      29.90R
6HR MIN TEMP:  65; 6HR MAX TEMP:  71;

CLINTON        CLEAR     64  50  59 CALM      29.91R
SEDALIA        CLEAR     66  49  54 NW7       29.91R
6HR MIN TEMP:  66; 6HR MAX TEMP:  74;

WARSAW         NOT AVBL
CHILLICOTHE      N/A     65  37  35 CALM      29.90R
6HR MIN TEMP:  65; 6HR MAX TEMP:  73;

KIRKSVILLE     CLEAR     64  44  48 CALM      29.90R
6HR MIN TEMP:  64; 6HR MAX TEMP:  72;


$$

MOZ041-047>049-056>058-063>065-088>090-097-220100-
...EASTERN AND SOUTHERN MISSOURI...

CITY           SKY/WX    TMP DP  RH WIND       PRES   REMARKS
ST. LOUIS INTL CLOUDY    65  55  70 NE3       29.91R
6HR MIN TEMP:  63; 6HR MAX TEMP:  67; 6HR PCP: TRACE;

SPIRIT OF STL  CLOUDY    63  59  87 CALM      29.90R
COLUMBIA       PTCLDY    63  57  81 SE7       29.91R
JEFFERSON CITY CLOUDY    64  58  80 SE7       29.91R
ROLLA          PTCLDY    57  56  96 N5        29.90R FOG
OSAGE BEACH    PTCLDY    63  58  83 NE5       29.91S
SPRINGFIELD    MOCLDY    61  57  87 NE6       29.90R
BRANSON        MOCLDY    59  59 100 CALM      29.91R
JOPLIN         CLEAR     66  51  58 N7        29.90S
WEST PLAINS    CLOUDY    58  56  93 E5        29.93R

$$

IAZ060-094-KSZ022-034>040-054-083-096-NEZ052-066-093-220100-
...KANSAS...SOUTHEAST NEBRASKA AND IOWA...

CITY           SKY/WX    TMP DP  RH WIND       PRES   REMARKS
TOPEKA         CLEAR     66  26  22 CALM      29.89S
6HR MIN TEMP:  61; 6HR MAX TEMP:  70;

MANHATTAN      CLEAR     62  36  37 SW5       29.88F
EMPORIA        CLEAR     66  28  24 CALM      29.90S
CHANUTE        CLEAR     68  43  40 NW6       29.90S
WICHITA        PTCLDY    63  38  39 S6        29.91F
OMAHA          PTCLDY    67  37  33 S13       29.81S
LINCOLN        CLEAR     66  30  26 S9        29.82F
FALLS CITY     CLEAR     64  35  34 S6        29.87F
LAMONI         CLEAR     61  35  37 S7        29.88S
DES MOINES     PTCLDY    60  34  37 S10       29.84F

$$





USA.gov is the U.S. government's official web portal to all federal, state and local government web resources and services.